Regional Weather Roundup
Issued by NWS

Home | Current Version | Previous Version | Text Only | Print | Product List | Glossary Off
Versions: 1 2 3 4 5 6 7 8 9 10 11 12 13 14 15 16 17 18 19 20 21 22 23 24 25 26 27 28 29 30 31 32 33 34 35 36 37 38 39 40 41 42 43 44 45 46 47 48 49 50

000
ASUS43 KIND 170259
RWRIN

WEATHER ROUNDUP FOR INDIANA
NATIONAL WEATHER SERVICE INDIANAPOLIS IN
1000 PM EST TUE JAN 16 2018

NOTE: "FAIR" INDICATES FEW OR NO CLOUDS BELOW 12,000 FEET WITH NO
SIGNIFICANT WEATHER AND/OR OBSTRUCTIONS TO VISIBILITY.

* - STATION DOES NOT REPORT WEATHER SUCH AS PRECIPITATION OR FOG.

+ - STATION NOT QUALITY CONTROLLED BY THE NATIONAL WEATHER SERVICE.
    USE DATA WITH CAUTION...ESPECIALLY DEWPOINT AND RELATIVE
    HUMIDITY OBSERVATIONS.

INZ001>003-010>013-019-020-170400-
NORTHWEST INDIANA

CITY           SKY/WX    TMP DP  RH WIND       PRES   REMARKS
GARY /AIRPORT/ PTCLDY    18  10  73 W12       30.53R WCI   5
MONTICELLO +   LGT SNOW   8   4  83 SW9       30.53S WCI  -5

$$

LMZ046-743>745-170400-
SOUTHERN LAKE MICHIGAN

STATION/POSITION TIME  TEMP    WIND        PRES    WAVE
                       AIR SEA DIR/SP/G            HT
                 (UTC) (F)     (DEG/KT/KT) (MB)    (FT)
BURNS HARBOR     0240   23     300/ 19/ 24 1032.5R
MICHIGAN CITY    0230          330/ 22/ 25   N/A

$$

INZ004-005-014>016-021>024-170400-
NORTH CENTRAL INDIANA

CITY           SKY/WX    TMP DP  RH WIND       PRES   REMARKS
GOSHEN         MOCLDY     4   1  88 S7        30.49R WCI  -8
PERU/GRISSOM   FLURRIES   8   6  91 W10       30.51S WCI  -7
SOUTH BEND     CLOUDY     9   6  88 S3        30.49R

$$

INZ006>009-017-018-025>027-170400-
NORTHEAST INDIANA

CITY           SKY/WX    TMP DP  RH WIND       PRES   REMARKS
FORT WAYNE     MOCLDY     8   4  83 W8        30.51S WCI  -4
KENDALLVILLE + FAIR       4   1  88 SW3       30.48R

$$

INZ028-029-035-036-043>045-051>053-170400-
WEST CENTRAL INDIANA

CITY           SKY/WX    TMP DP  RH WIND       PRES   REMARKS
LAFAYETTE      CLOUDY     7   4  87 W7        30.56F WCI  -5
TERRE HAUTE    CLOUDY     7   1  76 W6        30.63R WCI  -3

$$

INZ030>032-037>040-046>048-054>057-064-065-170400-
CENTRAL INDIANA

CITY           SKY/WX    TMP DP  RH WIND       PRES   REMARKS
COLUMBUS       FLURRIES   7   0  72 W6        30.61S WCI  -3
INDIANAPOLIS   NOT AVBL
-EAGLE CREEK   CLOUDY     7   1  76 VRB3      30.56R
MT COMFORT *+  CLOUDY     7   3  85 W10       30.56R WCI  -8
SHELBYVILLE    CLOUDY     7  -1  70 SW8       30.57S WCI  -6

$$

INZ033-034-041-042-049-050-058-059-170400-
EAST CENTRAL INDIANA

CITY           SKY/WX    TMP DP  RH WIND       PRES   REMARKS
MUNCIE         CLOUDY     8   1  73 SW9       30.52S WCI  -5
RICHMOND +     CLOUDY     5   1  85 W16       30.51S WCI -14

$$

INZ060-061-067>069-081>083-085>088-170400-
SOUTHWEST INDIANA

CITY           SKY/WX    TMP DP  RH WIND       PRES   REMARKS
EVANSVILLE     CLOUDY     6   2  83 NW3       30.67S
HUNTINGBURG +  FLURRIES   5   1  83 NW5       30.65S WCI  -4

$$

INZ062-063-066-070>080-084-089>092-170400-
SOUTH CENTRAL AND SOUTHEAST INDIANA

CITY           SKY/WX    TMP DP  RH WIND       PRES   REMARKS
BLOOMINGTON    CLOUDY     5  -1  76 W6        30.59S WCI  -6
MADISON *+     CLOUDY     7   0  72 W6        30.61S WCI  -3
SEYMOUR +      FLURRIES   9   0  66 W8        30.62S WCI  -4

$$





USA.gov is the U.S. government's official web portal to all federal, state and local government web resources and services.